owner,sensor,date,latitude,longitude,vertical_datum,mass_concentration_of_oxygen_in_sea_water,qcFlag 
SCCF RECON,ioos:station:SCCF:13:1,2017-10-16T17:00:00Z,26.5255,-82.0032,2.8,6.4,1111122 
SCCF RECON,ioos:station:SCCF:13:1,2017-10-16T18:00:00Z,26.5255,-82.0032,2.722,6.28,1111122 
SCCF RECON,ioos:station:SCCF:13:1,2017-10-16T19:00:00Z,26.5255,-82.0032,2.578,6.44,1111122 
SCCF RECON,ioos:station:SCCF:13:1,2017-10-16T20:00:00Z,26.5255,-82.0032,2.455,5.94,1111122 
SCCF RECON,ioos:station:SCCF:13:1,2017-10-16T21:00:00Z,26.5255,-82.0032,2.38,6.3,1111122 
SCCF RECON,ioos:station:SCCF:13:1,2017-10-16T22:00:00Z,26.5255,-82.0032,2.309,6.19,1111122 
SCCF RECON,ioos:station:SCCF:13:1,2017-10-17T04:00:00Z,26.5255,-82.0032,2.76,6.24,1111122 
SCCF RECON,ioos:station:SCCF:13:1,2017-10-17T05:00:00Z,26.5255,-82.0032,2.78,6.63,1111122 
SCCF RECON,ioos:station:SCCF:13:1,2017-10-17T06:00:00Z,26.5255,-82.0032,2.73,6.63,1111122 
SCCF RECON,ioos:station:SCCF:13:1,2017-10-17T07:00:00Z,26.5255,-82.0032,2.62,6.66,1111122 
SCCF RECON,ioos:station:SCCF:13:1,2017-10-17T08:00:00Z,26.5255,-82.0032,2.5,5.99,1111122 
SCCF RECON,ioos:station:SCCF:13:1,2017-10-17T09:00:00Z,26.5255,-82.0032,2.413,6.04,1111122 
SCCF RECON,ioos:station:SCCF:13:1,2017-10-17T10:00:00Z,26.5255,-82.0032,2.34,5.94,1111122 
SCCF RECON,ioos:station:SCCF:13:1,2017-10-17T11:00:00Z,26.5255,-82.0032,2.321,5.99,1111122 
SCCF RECON,ioos:station:SCCF:13:1,2017-10-17T12:00:00Z,26.5255,-82.0032,2.419,6.03,1111122 
SCCF RECON,ioos:station:SCCF:13:1,2017-10-17T13:00:00Z,26.5255,-82.0032,2.551,6.07,1111122 
SCCF RECON,ioos:station:SCCF:13:1,2017-10-17T14:00:00Z,26.5255,-82.0032,2.68,5.49,1111122 
SCCF RECON,ioos:station:SCCF:13:1,2017-10-17T15:00:00Z,26.5255,-82.0032,2.741,5.9,1111122 
SCCF RECON,ioos:station:SCCF:13:1,2017-10-17T16:00:00Z,26.5255,-82.0032,2.78,6.34,1111122 
SCCF RECON,ioos:station:SCCF:13:1,2017-10-17T17:00:00Z,26.5255,-82.0032,2.78,6.57,1111122 
SCCF RECON,ioos:station:SCCF:13:1,2017-10-17T18:00:00Z,26.5255,-82.0032,2.76,6.45,1111122 
SCCF RECON,ioos:station:SCCF:13:1,2017-10-17T19:00:00Z,26.5255,-82.0032,2.67,6.47,1111122 
SCCF RECON,ioos:station:SCCF:13:1,2017-10-17T20:00:00Z,26.5255,-82.0032,2.55,6.22,1111122 
SCCF RECON,ioos:station:SCCF:13:1,2017-10-17T21:00:00Z,26.5255,-82.0032,2.45,6.5,1111122 
SCCF RECON,ioos:station:SCCF:13:1,2017-10-17T22:00:00Z,26.5255,-82.0032,2.378,6.57,1111122 
SCCF RECON,ioos:station:SCCF:13:1,2017-10-18T04:00:00Z,26.5255,-82.0032,2.69,5.95,1111122 
SCCF RECON,ioos:station:SCCF:13:1,2017-10-18T05:00:00Z,26.5255,-82.0032,2.73,6.39,1111122 
SCCF RECON,ioos:station:SCCF:13:1,2017-10-18T06:00:00Z,26.5255,-82.0032,2.73,6.47,1111122 
SCCF RECON,ioos:station:SCCF:13:1,2017-10-18T07:00:00Z,26.5255,-82.0032,2.63,6.34,1111122 
SCCF RECON,ioos:station:SCCF:13:1,2017-10-18T08:00:00Z,26.5255,-82.0032,2.46,6.17,1111122 
SCCF RECON,ioos:station:SCCF:13:1,2017-10-18T09:00:00Z,26.5255,-82.0032,2.353,6.81,1111122 
SCCF RECON,ioos:station:SCCF:13:1,2017-10-18T10:00:00Z,26.5255,-82.0032,2.29,6.69,1111122 
SCCF RECON,ioos:station:SCCF:13:1,2017-10-18T11:00:00Z,26.5255,-82.0032,2.22,6.71,1111122 
SCCF RECON,ioos:station:SCCF:13:1,2017-10-18T12:00:00Z,26.5255,-82.0032,2.25,6.72,1111122 
SCCF RECON,ioos:station:SCCF:13:1,2017-10-18T13:00:00Z,26.5255,-82.0032,2.36,6.64,1111122 
SCCF RECON,ioos:station:SCCF:13:1,2017-10-18T14:00:00Z,26.5255,-82.0032,2.48,6.72,1111122 
SCCF RECON,ioos:station:SCCF:13:1,2017-10-18T15:00:00Z,26.5255,-82.0032,2.57,5.73,1111122 
SCCF RECON,ioos:station:SCCF:13:1,2017-10-18T16:00:00Z,26.5255,-82.0032,2.63,6.01,1111122 
SCCF RECON,ioos:station:SCCF:13:1,2017-10-18T17:00:00Z,26.5255,-82.0032,2.683,6.38,1111122 
SCCF RECON,ioos:station:SCCF:13:1,2017-10-18T18:00:00Z,26.5255,-82.0032,2.68,6.51,1111122 
SCCF RECON,ioos:station:SCCF:13:1,2017-10-18T19:00:00Z,26.5255,-82.0032,2.64,6.44,1111122 
SCCF RECON,ioos:station:SCCF:13:1,2017-10-18T20:00:00Z,26.5255,-82.0032,2.551,6.29,1111122 
SCCF RECON,ioos:station:SCCF:13:1,2017-10-18T21:00:00Z,26.5255,-82.0032,2.42,6.21,1111122 
SCCF RECON,ioos:station:SCCF:13:1,2017-10-18T22:00:00Z,26.5255,-82.0032,2.332,7.02,1111122 
SCCF RECON,ioos:station:SCCF:13:1,2017-10-19T04:00:00Z,26.5255,-82.0032,2.61,6.17,1111122 
SCCF RECON,ioos:station:SCCF:13:1,2017-10-19T05:00:00Z,26.5255,-82.0032,2.669,6.4,1111122 
SCCF RECON,ioos:station:SCCF:13:1,2017-10-19T06:00:00Z,26.5255,-82.0032,2.663,6.61,1111122 
SCCF RECON,ioos:station:SCCF:13:1,2017-10-19T07:00:00Z,26.5255,-82.0032,2.61,6.5,1111122 
SCCF RECON,ioos:station:SCCF:13:1,2017-10-19T08:00:00Z,26.5255,-82.0032,2.49,6.45,1111122 
SCCF RECON,ioos:station:SCCF:13:1,2017-10-19T09:00:00Z,26.5255,-82.0032,2.369,6.62,1111122 
SCCF RECON,ioos:station:SCCF:13:1,2017-10-19T10:00:00Z,26.5255,-82.0032,2.271,7.07,1111122 
SCCF RECON,ioos:station:SCCF:13:1,2017-10-19T11:00:00Z,26.5255,-82.0032,2.2,7.06,1111122 
SCCF RECON,ioos:station:SCCF:13:1,2017-10-19T12:00:00Z,26.5255,-82.0032,2.148,7.16,1111122 
SCCF RECON,ioos:station:SCCF:13:1,2017-10-19T13:00:00Z,26.5255,-82.0032,2.16,7.1,1111122 
SCCF RECON,ioos:station:SCCF:13:1,2017-10-19T14:00:00Z,26.5255,-82.0032,2.301,7.16,1111122 
SCCF RECON,ioos:station:SCCF:13:1,2017-10-19T15:00:00Z,26.5255,-82.0032,2.44,7.23,1111122 
SCCF RECON,ioos:station:SCCF:13:1,2017-10-19T16:00:00Z,26.5255,-82.0032,2.539,6.44,1111122 
SCCF RECON,ioos:station:SCCF:13:1,2017-10-19T17:00:00Z,26.5255,-82.0032,2.61,6.42,1111122 
SCCF RECON,ioos:station:SCCF:13:1,2017-10-19T18:00:00Z,26.5255,-82.0032,2.65,6.53,1111122 
SCCF RECON,ioos:station:SCCF:13:1,2017-10-19T19:00:00Z,26.5255,-82.0032,2.646,6.61,1111122 
SCCF RECON,ioos:station:SCCF:13:1,2017-10-19T20:00:00Z,26.5255,-82.0032,2.594,6.59,1111122 
SCCF RECON,ioos:station:SCCF:13:1,2017-10-19T21:00:00Z,26.5255,-82.0032,2.493,6.27,1111122 
SCCF RECON,ioos:station:SCCF:13:1,2017-10-19T22:00:00Z,26.5255,-82.0032,2.401,6.4,1111122 
SCCF RECON,ioos:station:SCCF:13:1,2017-10-20T04:00:00Z,26.5255,-82.0032,2.582,6.26,1111122 
SCCF RECON,ioos:station:SCCF:13:1,2017-10-20T05:00:00Z,26.5255,-82.0032,2.612,6.34,1111122 
SCCF RECON,ioos:station:SCCF:13:1,2017-10-20T06:00:00Z,26.5255,-82.0032,2.63,6.35,1111122 
SCCF RECON,ioos:station:SCCF:13:1,2017-10-20T07:00:00Z,26.5255,-82.0032,2.571,6.29,1111122 
SCCF RECON,ioos:station:SCCF:13:1,2017-10-20T08:00:00Z,26.5255,-82.0032,2.48,6.3,1111122 
SCCF RECON,ioos:station:SCCF:13:1,2017-10-20T09:00:00Z,26.5255,-82.0032,2.36,6.62,1111122 
SCCF RECON,ioos:station:SCCF:13:1,2017-10-20T10:00:00Z,26.5255,-82.0032,2.26,7.37,1111122 
SCCF RECON,ioos:station:SCCF:13:1,2017-10-20T11:00:00Z,26.5255,-82.0032,2.18,7.36,1111122 
SCCF RECON,ioos:station:SCCF:13:1,2017-10-20T12:00:00Z,26.5255,-82.0032,2.111,7.42,1111122 
SCCF RECON,ioos:station:SCCF:13:1,2017-10-20T13:00:00Z,26.5255,-82.0032,2.06,7.45,1111122 
SCCF RECON,ioos:station:SCCF:13:1,2017-10-20T14:00:00Z,26.5255,-82.0032,2.125,7.39,1111122 
SCCF RECON,ioos:station:SCCF:13:1,2017-10-20T15:00:00Z,26.5255,-82.0032,2.29,7.45,1111122 
SCCF RECON,ioos:station:SCCF:13:1,2017-10-20T16:00:00Z,26.5255,-82.0032,2.393,7.53,1111122 
SCCF RECON,ioos:station:SCCF:13:1,2017-10-20T17:00:00Z,26.5255,-82.0032,2.459,6.91,1111122 
SCCF RECON,ioos:station:SCCF:13:1,2017-10-20T18:00:00Z,26.5255,-82.0032,2.51,6.51,1111122 
SCCF RECON,ioos:station:SCCF:13:1,2017-10-20T19:00:00Z,26.5255,-82.0032,2.553,6.74,1111122 
SCCF RECON,ioos:station:SCCF:13:1,2017-10-20T20:00:00Z,26.5255,-82.0032,2.544,6.85,1111122 
SCCF RECON,ioos:station:SCCF:13:1,2017-10-20T21:00:00Z,26.5255,-82.0032,2.507,6.77,1111122 
SCCF RECON,ioos:station:SCCF:13:1,2017-10-20T22:00:00Z,26.5255,-82.0032,2.408,6.61,1111122 
SCCF RECON,ioos:station:SCCF:13:1,2017-10-21T04:00:00Z,26.5255,-82.0032,2.58,6.49,1111122 
SCCF RECON,ioos:station:SCCF:13:1,2017-10-21T05:00:00Z,26.5255,-82.0032,2.626,6.58,1111122 
SCCF RECON,ioos:station:SCCF:13:1,2017-10-21T06:00:00Z,26.5255,-82.0032,2.652,6.62,1111122 
SCCF RECON,ioos:station:SCCF:13:1,2017-10-21T07:00:00Z,26.5255,-82.0032,2.63,6.56,1111122 
SCCF RECON,ioos:station:SCCF:13:1,2017-10-21T08:00:00Z,26.5255,-82.0032,2.569,6.39,1111122 
SCCF RECON,ioos:station:SCCF:13:1,2017-10-21T09:00:00Z,26.5255,-82.0032,2.47,6.46,1111122 
SCCF RECON,ioos:station:SCCF:13:1,2017-10-21T10:00:00Z,26.5255,-82.0032,2.36,6.79,1111122 
SCCF RECON,ioos:station:SCCF:13:1,2017-10-21T11:00:00Z,26.5255,-82.0032,2.27,7.58,1111122 
SCCF RECON,ioos:station:SCCF:13:1,2017-10-21T12:00:00Z,26.5255,-82.0032,2.193,7.56,1111122 
SCCF RECON,ioos:station:SCCF:13:1,2017-10-21T13:00:00Z,26.5255,-82.0032,2.131,7.62,1111122 
SCCF RECON,ioos:station:SCCF:13:1,2017-10-21T14:00:00Z,26.5255,-82.0032,2.131,7.54,1111122 
SCCF RECON,ioos:station:SCCF:13:1,2017-10-21T15:00:00Z,26.5255,-82.0032,2.26,7.59,1111122 
SCCF RECON,ioos:station:SCCF:13:1,2017-10-21T16:00:00Z,26.5255,-82.0032,2.41,7.54,1111122 
SCCF RECON,ioos:station:SCCF:13:1,2017-10-21T17:00:00Z,26.5255,-82.0032,2.501,6.95,1111122 
SCCF RECON,ioos:station:SCCF:13:1,2017-10-21T18:00:00Z,26.5255,-82.0032,2.57,6.8,1111122 
SCCF RECON,ioos:station:SCCF:13:1,2017-10-21T19:00:00Z,26.5255,-82.0032,2.608,6.91,1111122 
SCCF RECON,ioos:station:SCCF:13:1,2017-10-21T20:00:00Z,26.5255,-82.0032,2.628,7.16,1111122 
SCCF RECON,ioos:station:SCCF:13:1,2017-10-21T21:00:00Z,26.5255,-82.0032,2.631,7.16,1111122 
SCCF RECON,ioos:station:SCCF:13:1,2017-10-21T22:00:00Z,26.5255,-82.0032,2.57,6.9,1111122 
SCCF RECON,ioos:station:SCCF:13:1,2017-10-22T04:00:00Z,26.5255,-82.0032,2.62,6.71,1111122 
SCCF RECON,ioos:station:SCCF:13:1,2017-10-22T05:00:00Z,26.5255,-82.0032,2.7,6.77,1111122 
SCCF RECON,ioos:station:SCCF:13:1,2017-10-22T06:00:00Z,26.5255,-82.0032,2.74,6.81,1111122 
SCCF RECON,ioos:station:SCCF:13:1,2017-10-22T07:00:00Z,26.5255,-82.0032,2.73,6.78,1111122 
SCCF RECON,ioos:station:SCCF:13:1,2017-10-22T08:00:00Z,26.5255,-82.0032,2.72,6.82,1111122 
SCCF RECON,ioos:station:SCCF:13:1,2017-10-22T09:00:00Z,26.5255,-82.0032,2.679,6.73,1111122 
SCCF RECON,ioos:station:SCCF:13:1,2017-10-22T10:00:00Z,26.5255,-82.0032,2.54,6.74,1111122 
SCCF RECON,ioos:station:SCCF:13:1,2017-10-22T11:00:00Z,26.5255,-82.0032,2.43,6.89,1111122 
SCCF RECON,ioos:station:SCCF:13:1,2017-10-22T12:00:00Z,26.5255,-82.0032,2.35,7.55,1111122 
SCCF RECON,ioos:station:SCCF:13:1,2017-10-22T13:00:00Z,26.5255,-82.0032,2.274,7.55,1111122 
SCCF RECON,ioos:station:SCCF:13:1,2017-10-22T14:00:00Z,26.5255,-82.0032,2.221,7.49,1111122 
SCCF RECON,ioos:station:SCCF:13:1,2017-10-22T15:00:00Z,26.5255,-82.0032,2.267,7.47,1111122 
SCCF RECON,ioos:station:SCCF:13:1,2017-10-22T16:00:00Z,26.5255,-82.0032,2.428,7.48,1111122 
SCCF RECON,ioos:station:SCCF:13:1,2017-10-22T17:00:00Z,26.5255,-82.0032,2.53,7.24,1111122 
SCCF RECON,ioos:station:SCCF:13:1,2017-10-22T18:00:00Z,26.5255,-82.0032,2.58,6.57,1111122 
SCCF RECON,ioos:station:SCCF:13:1,2017-10-22T19:00:00Z,26.5255,-82.0032,2.653,6.9,1111122 
SCCF RECON,ioos:station:SCCF:13:1,2017-10-22T20:00:00Z,26.5255,-82.0032,2.701,7.62,1111122 
SCCF RECON,ioos:station:SCCF:13:1,2017-10-22T21:00:00Z,26.5255,-82.0032,2.731,7.84,1111122 
SCCF RECON,ioos:station:SCCF:13:1,2017-10-22T22:00:00Z,26.5255,-82.0032,2.72,7.75,1111122 
SCCF RECON,ioos:station:SCCF:13:1,2017-10-23T04:00:00Z,26.5255,-82.0032,2.67,6.89,1111122 
SCCF RECON,ioos:station:SCCF:13:1,2017-10-23T05:00:00Z,26.5255,-82.0032,2.73,6.84,1111122 
SCCF RECON,ioos:station:SCCF:13:1,2017-10-23T06:00:00Z,26.5255,-82.0032,2.786,6.94,1111122 
SCCF RECON,ioos:station:SCCF:13:1,2017-10-23T07:00:00Z,26.5255,-82.0032,2.801,7.05,1111122 
SCCF RECON,ioos:station:SCCF:13:1,2017-10-23T08:00:00Z,26.5255,-82.0032,2.8,7.0,1111122 
SCCF RECON,ioos:station:SCCF:13:1,2017-10-23T09:00:00Z,26.5255,-82.0032,2.75,6.83,1111122 
SCCF RECON,ioos:station:SCCF:13:1,2017-10-23T10:00:00Z,26.5255,-82.0032,2.63,6.85,1111122 
SCCF RECON,ioos:station:SCCF:13:1,2017-10-23T11:00:00Z,26.5255,-82.0032,2.522,6.82,1111122 
SCCF RECON,ioos:station:SCCF:13:1,2017-10-23T12:00:00Z,26.5255,-82.0032,2.439,7.1,1111122 
SCCF RECON,ioos:station:SCCF:13:1,2017-10-23T13:00:00Z,26.5255,-82.0032,2.341,7.19,1111122 
SCCF RECON,ioos:station:SCCF:13:1,2017-10-23T14:00:00Z,26.5255,-82.0032,2.262,7.18,1111122 
SCCF RECON,ioos:station:SCCF:13:1,2017-10-23T15:00:00Z,26.5255,-82.0032,2.231,7.12,1111122 
SCCF RECON,ioos:station:SCCF:13:1,2017-10-23T16:00:00Z,26.5255,-82.0032,2.32,7.15,1111122 
SCCF RECON,ioos:station:SCCF:13:1,2017-10-23T17:00:00Z,26.5255,-82.0032,2.45,7.16,1111122 
SCCF RECON,ioos:station:SCCF:13:1,2017-10-23T18:00:00Z,26.5255,-82.0032,2.548,7.07,1111122 
SCCF RECON,ioos:station:SCCF:13:1,2017-10-23T19:00:00Z,26.5255,-82.0032,2.58,6.45,1111122 
SCCF RECON,ioos:station:SCCF:13:1,2017-10-23T20:00:00Z,26.5255,-82.0032,2.629,7.03,1111122 
SCCF RECON,ioos:station:SCCF:13:1,2017-10-23T21:00:00Z,26.5255,-82.0032,2.66,7.41,1111122 
SCCF RECON,ioos:station:SCCF:13:1,2017-10-23T22:00:00Z,26.5255,-82.0032,2.68,7.42,1111122 
SCCF RECON,ioos:station:SCCF:13:1,2017-10-24T04:00:00Z,26.5255,-82.0032,2.71,6.52,1111122 
SCCF RECON,ioos:station:SCCF:13:1,2017-10-24T05:00:00Z,26.5255,-82.0032,2.82,7.13,1111122 
SCCF RECON,ioos:station:SCCF:13:1,2017-10-24T06:00:00Z,26.5255,-82.0032,2.82,7.1,1111122 
SCCF RECON,ioos:station:SCCF:13:1,2017-10-24T07:00:00Z,26.5255,-82.0032,2.81,7.02,1111122 
SCCF RECON,ioos:station:SCCF:13:1,2017-10-24T08:00:00Z,26.5255,-82.0032,2.87,6.92,1111122 
SCCF RECON,ioos:station:SCCF:13:1,2017-10-24T09:00:00Z,26.5255,-82.0032,2.87,6.85,1111122 
SCCF RECON,ioos:station:SCCF:13:1,2017-10-24T10:00:00Z,26.5255,-82.0032,2.746,6.79,1111122 
SCCF RECON,ioos:station:SCCF:13:1,2017-10-24T11:00:00Z,26.5255,-82.0032,2.62,6.69,1111122 
SCCF RECON,ioos:station:SCCF:13:1,2017-10-24T12:00:00Z,26.5255,-82.0032,2.531,6.92,1111122 
SCCF RECON,ioos:station:SCCF:13:1,2017-10-24T13:00:00Z,26.5255,-82.0032,2.449,7.09,1111122 
SCCF RECON,ioos:station:SCCF:13:1,2017-10-24T14:00:00Z,26.5255,-82.0032,2.37,7.12,1111122 
SCCF RECON,ioos:station:SCCF:13:1,2017-10-24T15:00:00Z,26.5255,-82.0032,2.3,7.02,1111122 
SCCF RECON,ioos:station:SCCF:13:1,2017-10-24T16:00:00Z,26.5255,-82.0032,2.3,6.97,1111122 
SCCF RECON,ioos:station:SCCF:13:1,2017-10-24T17:00:00Z,26.5255,-82.0032,2.375,6.97,1111122 
SCCF RECON,ioos:station:SCCF:13:1,2017-10-24T18:00:00Z,26.5255,-82.0032,2.5,6.98,1111122 
SCCF RECON,ioos:station:SCCF:13:1,2017-10-24T19:00:00Z,26.5255,-82.0032,2.56,6.68,1111122 
SCCF RECON,ioos:station:SCCF:13:1,2017-10-24T20:00:00Z,26.5255,-82.0032,2.58,6.11,1111122 
SCCF RECON,ioos:station:SCCF:13:1,2017-10-24T21:00:00Z,26.5255,-82.0032,2.57,6.22,1111122 
SCCF RECON,ioos:station:SCCF:13:1,2017-10-24T22:00:00Z,26.5255,-82.0032,2.53,6.18,1111122 
SCCF RECON,ioos:station:SCCF:13:1,2017-10-25T04:00:00Z,26.5255,-82.0032,2.48,5.97,1111122 
SCCF RECON,ioos:station:SCCF:13:1,2017-10-25T05:00:00Z,26.5255,-82.0032,2.52,5.92,1111122 
SCCF RECON,ioos:station:SCCF:13:1,2017-10-25T06:00:00Z,26.5255,-82.0032,2.577,6.22,1111122 
SCCF RECON,ioos:station:SCCF:13:1,2017-10-25T07:00:00Z,26.5255,-82.0032,2.638,6.03,1111122 
SCCF RECON,ioos:station:SCCF:13:1,2017-10-25T08:00:00Z,26.5255,-82.0032,2.654,5.78,1111122 
SCCF RECON,ioos:station:SCCF:13:1,2017-10-25T09:00:00Z,26.5255,-82.0032,2.65,5.86,1111122 
SCCF RECON,ioos:station:SCCF:13:1,2017-10-25T10:00:00Z,26.5255,-82.0032,2.59,5.84,1111122 
SCCF RECON,ioos:station:SCCF:13:1,2017-10-25T11:00:00Z,26.5255,-82.0032,2.5,5.92,1111122 
SCCF RECON,ioos:station:SCCF:13:1,2017-10-25T12:00:00Z,26.5255,-82.0032,2.412,6.7,1111122 
SCCF RECON,ioos:station:SCCF:13:1,2017-10-25T13:00:00Z,26.5255,-82.0032,2.321,7.06,1111122 
SCCF RECON,ioos:station:SCCF:13:1,2017-10-25T14:00:00Z,26.5255,-82.0032,2.229,7.25,1111122 
SCCF RECON,ioos:station:SCCF:13:1,2017-10-25T15:00:00Z,26.5255,-82.0032,2.137,7.37,1111122 
SCCF RECON,ioos:station:SCCF:13:1,2017-10-25T16:00:00Z,26.5255,-82.0032,2.06,7.38,1111122 
SCCF RECON,ioos:station:SCCF:13:1,2017-10-25T17:00:00Z,26.5255,-82.0032,2.026,7.43,1111122 
SCCF RECON,ioos:station:SCCF:13:1,2017-10-25T18:00:00Z,26.5255,-82.0032,2.063,7.33,1111122 
SCCF RECON,ioos:station:SCCF:13:1,2017-10-25T19:00:00Z,26.5255,-82.0032,2.13,7.39,1111122 
SCCF RECON,ioos:station:SCCF:13:1,2017-10-25T20:00:00Z,26.5255,-82.0032,2.23,7.42,1111122 
SCCF RECON,ioos:station:SCCF:13:1,2017-10-25T21:00:00Z,26.5255,-82.0032,2.281,7.54,1111122 
SCCF RECON,ioos:station:SCCF:13:1,2017-10-25T22:00:00Z,26.5255,-82.0032,2.273,7.75,1111122 
SCCF RECON,ioos:station:SCCF:13:1,2017-10-26T04:00:00Z,26.5255,-82.0032,2.382,5.84,1111122 
SCCF RECON,ioos:station:SCCF:13:1,2017-10-26T05:00:00Z,26.5255,-82.0032,2.43,5.96,1111122 
SCCF RECON,ioos:station:SCCF:13:1,2017-10-26T06:00:00Z,26.5255,-82.0032,2.484,6.09,1111122 
SCCF RECON,ioos:station:SCCF:13:1,2017-10-26T07:00:00Z,26.5255,-82.0032,2.53,6.07,1111122 
SCCF RECON,ioos:station:SCCF:13:1,2017-10-26T08:00:00Z,26.5255,-82.0032,2.55,6.35,1111122 
SCCF RECON,ioos:station:SCCF:13:1,2017-10-26T09:00:00Z,26.5255,-82.0032,2.56,6.32,1111122 
SCCF RECON,ioos:station:SCCF:13:1,2017-10-26T10:00:00Z,26.5255,-82.0032,2.569,6.36,1111122 
SCCF RECON,ioos:station:SCCF:13:1,2017-10-26T11:00:00Z,26.5255,-82.0032,2.5,6.27,1111122 
SCCF RECON,ioos:station:SCCF:13:1,2017-10-26T12:00:00Z,26.5255,-82.0032,2.4,6.26,1111122 
SCCF RECON,ioos:station:SCCF:13:1,2017-10-26T13:00:00Z,26.5255,-82.0032,2.319,7.41,1111122 
SCCF RECON,ioos:station:SCCF:13:1,2017-10-26T14:00:00Z,26.5255,-82.0032,2.249,7.62,1111122 
SCCF RECON,ioos:station:SCCF:13:1,2017-10-26T15:00:00Z,26.5255,-82.0032,2.171,7.65,1111122 
SCCF RECON,ioos:station:SCCF:13:1,2017-10-26T16:00:00Z,26.5255,-82.0032,2.111,7.78,1111122 
SCCF RECON,ioos:station:SCCF:13:1,2017-10-26T17:00:00Z,26.5255,-82.0032,2.08,7.74,1111122 
SCCF RECON,ioos:station:SCCF:13:1,2017-10-26T18:00:00Z,26.5255,-82.0032,2.087,7.88,1111122 
SCCF RECON,ioos:station:SCCF:13:1,2017-10-26T19:00:00Z,26.5255,-82.0032,2.14,7.97,1111122 
SCCF RECON,ioos:station:SCCF:13:1,2017-10-26T20:00:00Z,26.5255,-82.0032,2.24,7.97,1111122 
SCCF RECON,ioos:station:SCCF:13:1,2017-10-26T21:00:00Z,26.5255,-82.0032,2.304,7.99,1111122 
SCCF RECON,ioos:station:SCCF:13:1,2017-10-26T22:00:00Z,26.5255,-82.0032,2.346,6.71,1111122 
SCCF RECON,ioos:station:SCCF:13:1,2017-10-27T10:00:00Z,26.5255,-82.0032,2.57,6.79,1111122 
SCCF RECON,ioos:station:SCCF:13:1,2017-10-27T11:00:00Z,26.5255,-82.0032,2.56,6.18,1111122 
SCCF RECON,ioos:station:SCCF:13:1,2017-10-27T12:00:00Z,26.5255,-82.0032,2.51,5.99,1111122 
SCCF RECON,ioos:station:SCCF:13:1,2017-10-27T14:00:00Z,26.5255,-82.0032,2.326,6.66,1111122 
SCCF RECON,ioos:station:SCCF:13:1,2017-10-27T19:00:00Z,26.5255,-82.0032,2.15,7.95,1111122 
SCCF RECON,ioos:station:SCCF:13:1,2017-10-27T20:00:00Z,26.5255,-82.0032,2.235,8.0,1111122 
SCCF RECON,ioos:station:SCCF:13:1,2017-10-27T22:00:00Z,26.5255,-82.0032,2.364,6.54,1111122 
SCCF RECON,ioos:station:SCCF:13:1,2017-10-28T04:00:00Z,26.5255,-82.0032,2.49,7.43,1111122 
SCCF RECON,ioos:station:SCCF:13:1,2017-10-28T05:00:00Z,26.5255,-82.0032,2.46,7.09,1111122 
SCCF RECON,ioos:station:SCCF:13:1,2017-10-28T06:00:00Z,26.5255,-82.0032,2.44,7.11,1111122 
SCCF RECON,ioos:station:SCCF:13:1,2017-10-28T07:00:00Z,26.5255,-82.0032,2.42,6.91,1111122 
SCCF RECON,ioos:station:SCCF:13:1,2017-10-28T08:00:00Z,26.5255,-82.0032,2.48,6.97,1111122 
SCCF RECON,ioos:station:SCCF:13:1,2017-10-28T09:00:00Z,26.5255,-82.0032,2.521,7.01,1111122 
SCCF RECON,ioos:station:SCCF:13:1,2017-10-28T10:00:00Z,26.5255,-82.0032,2.57,7.14,1111122 
SCCF RECON,ioos:station:SCCF:13:1,2017-10-28T11:00:00Z,26.5255,-82.0032,2.61,6.81,1111122 
SCCF RECON,ioos:station:SCCF:13:1,2017-10-28T12:00:00Z,26.5255,-82.0032,2.61,6.7,1111122 
SCCF RECON,ioos:station:SCCF:13:1,2017-10-28T13:00:00Z,26.5255,-82.0032,2.583,6.47,1111122 
SCCF RECON,ioos:station:SCCF:13:1,2017-10-28T14:00:00Z,26.5255,-82.0032,2.518,6.33,1111122 
SCCF RECON,ioos:station:SCCF:13:1,2017-10-28T15:00:00Z,26.5255,-82.0032,2.412,6.63,1111122 
SCCF RECON,ioos:station:SCCF:13:1,2017-10-28T16:00:00Z,26.5255,-82.0032,2.331,7.23,1111122 
SCCF RECON,ioos:station:SCCF:13:1,2017-10-28T17:00:00Z,26.5255,-82.0032,2.26,7.87,1111122 
SCCF RECON,ioos:station:SCCF:13:1,2017-10-28T18:00:00Z,26.5255,-82.0032,2.186,7.96,1111122 
SCCF RECON,ioos:station:SCCF:13:1,2017-10-28T19:00:00Z,26.5255,-82.0032,2.166,7.9,1111122 
SCCF RECON,ioos:station:SCCF:13:1,2017-10-28T20:00:00Z,26.5255,-82.0032,2.22,7.81,1111122 
SCCF RECON,ioos:station:SCCF:13:1,2017-10-28T21:00:00Z,26.5255,-82.0032,2.24,7.81,1111122 
SCCF RECON,ioos:station:SCCF:13:1,2017-10-28T22:00:00Z,26.5255,-82.0032,2.319,7.67,1111122 
SCCF RECON,ioos:station:SCCF:13:1,2017-10-29T04:00:00Z,26.5255,-82.0032,2.41,6.21,1111122 
SCCF RECON,ioos:station:SCCF:13:1,2017-10-29T05:00:00Z,26.5255,-82.0032,2.32,6.11,1111122 
SCCF RECON,ioos:station:SCCF:13:1,2017-10-29T06:00:00Z,26.5255,-82.0032,2.28,6.54,1111122 
SCCF RECON,ioos:station:SCCF:13:1,2017-10-29T07:00:00Z,26.5255,-82.0032,2.26,6.95,1111122 
SCCF RECON,ioos:station:SCCF:13:1,2017-10-29T08:00:00Z,26.5255,-82.0032,2.27,7.36,1111122 
SCCF RECON,ioos:station:SCCF:13:1,2017-10-29T09:00:00Z,26.5255,-82.0032,2.35,5.98,1111122 
SCCF RECON,ioos:station:SCCF:13:1,2017-10-29T10:00:00Z,26.5255,-82.0032,2.41,6.4,1111122 
SCCF RECON,ioos:station:SCCF:13:1,2017-10-29T11:00:00Z,26.5255,-82.0032,2.483,6.1,1111122 
SCCF RECON,ioos:station:SCCF:13:1,2017-10-29T12:00:00Z,26.5255,-82.0032,2.55,6.37,1111122 
SCCF RECON,ioos:station:SCCF:13:1,2017-10-29T13:00:00Z,26.5255,-82.0032,2.58,6.55,1111122 
SCCF RECON,ioos:station:SCCF:13:1,2017-10-29T14:00:00Z,26.5255,-82.0032,2.519,6.15,1111122 
SCCF RECON,ioos:station:SCCF:13:1,2017-10-29T15:00:00Z,26.5255,-82.0032,2.402,6.95,1111122 
SCCF RECON,ioos:station:SCCF:13:1,2017-10-29T16:00:00Z,26.5255,-82.0032,2.345,7.63,1111122 
SCCF RECON,ioos:station:SCCF:13:1,2017-10-29T17:00:00Z,26.5255,-82.0032,2.291,8.13,1111122 
SCCF RECON,ioos:station:SCCF:13:1,2017-10-29T18:00:00Z,26.5255,-82.0032,2.232,8.36,1111122 
SCCF RECON,ioos:station:SCCF:13:1,2017-10-29T19:00:00Z,26.5255,-82.0032,2.179,8.38,1111122 
SCCF RECON,ioos:station:SCCF:13:1,2017-10-29T20:00:00Z,26.5255,-82.0032,2.119,8.45,1111122 
SCCF RECON,ioos:station:SCCF:13:1,2017-10-29T21:00:00Z,26.5255,-82.0032,2.084,8.49,1111122 
SCCF RECON,ioos:station:SCCF:13:1,2017-10-29T22:00:00Z,26.5255,-82.0032,2.081,8.55,1111122 
SCCF RECON,ioos:station:SCCF:13:1,2017-10-30T04:00:00Z,26.5255,-82.0032,2.41,7.7,1111122 
SCCF RECON,ioos:station:SCCF:13:1,2017-10-30T05:00:00Z,26.5255,-82.0032,2.38,7.64,1111122 
SCCF RECON,ioos:station:SCCF:13:1,2017-10-30T06:00:00Z,26.5255,-82.0032,2.33,7.92,1111122 
SCCF RECON,ioos:station:SCCF:13:1,2017-10-30T07:00:00Z,26.5255,-82.0032,2.274,8.49,1111122 
SCCF RECON,ioos:station:SCCF:13:1,2017-10-30T08:00:00Z,26.5255,-82.0032,2.25,8.56,1111122 
SCCF RECON,ioos:station:SCCF:13:1,2017-10-30T09:00:00Z,26.5255,-82.0032,2.251,8.61,1111122 
SCCF RECON,ioos:station:SCCF:13:1,2017-10-30T10:00:00Z,26.5255,-82.0032,2.29,8.58,1111122 
SCCF RECON,ioos:station:SCCF:13:1,2017-10-30T11:00:00Z,26.5255,-82.0032,2.32,8.64,1111122 
SCCF RECON,ioos:station:SCCF:13:1,2017-10-30T12:00:00Z,26.5255,-82.0032,2.374,7.37,1111122 
SCCF RECON,ioos:station:SCCF:13:1,2017-10-30T13:00:00Z,26.5255,-82.0032,2.43,6.82,1111122 
SCCF RECON,ioos:station:SCCF:13:1,2017-10-30T14:00:00Z,26.5255,-82.0032,2.461,6.74,1111122 
SCCF RECON,ioos:station:SCCF:13:1,2017-10-30T15:00:00Z,26.5255,-82.0032,2.43,6.73,1111122 
SCCF RECON,ioos:station:SCCF:13:1,2017-10-30T16:00:00Z,26.5255,-82.0032,2.36,6.88,1111122 
SCCF RECON,ioos:station:SCCF:13:1,2017-10-30T17:00:00Z,26.5255,-82.0032,2.277,7.86,1111122 
SCCF RECON,ioos:station:SCCF:13:1,2017-10-30T18:00:00Z,26.5255,-82.0032,2.211,8.74,1111122 
SCCF RECON,ioos:station:SCCF:13:1,2017-10-30T19:00:00Z,26.5255,-82.0032,2.143,8.65,1111122 
SCCF RECON,ioos:station:SCCF:13:1,2017-10-30T20:00:00Z,26.5255,-82.0032,2.094,8.65,1111122 
SCCF RECON,ioos:station:SCCF:13:1,2017-10-30T21:00:00Z,26.5255,-82.0032,2.08,8.58,1111122 
SCCF RECON,ioos:station:SCCF:13:1,2017-10-30T22:00:00Z,26.5255,-82.0032,2.121,8.61,1111122 
SCCF RECON,ioos:station:SCCF:13:1,2017-10-31T04:00:00Z,26.5255,-82.0032,2.564,7.35,1111122 